Location: Haliburton Scout Reserve
(45.0900°N, 78.3200°W)
Time: 12:43:37
(UTC-04:00)

NOAA 18 - Visible Passes

Search period start: 17 May 2022 00:00
Search period end: 27 May 2022 00:00
Orbit: 839 x 861 km, 99.0° (Epoch: 17 May)

Date Brightness Start Highest point End Pass type
(mag) Time Alt. Az. Time Alt. Az. Time Alt. Az.
17 May 7.6 00:38:41 10° W 00:39:14 10° W 00:39:46 10° W visible
17 May 5.1 22:42:33 27° SSE 22:45:38 86° ENE 22:51:08 10° NNW visible
18 May 7.4 00:24:33 10° WSW 00:27:01 13° W 00:29:38 10° WNW visible
18 May 5.2 22:30:19 24° SSE 22:33:38 69° ENE 22:39:04 10° N visible
19 May 7.2 00:12:18 13° WSW 00:14:49 17° W 00:18:22 10° NW visible
19 May 5.5 22:18:05 21° SE 22:21:39 55° ENE 22:26:58 10° N visible
20 May 7.0 00:00:04 16° SW 00:02:39 22° W 00:06:50 10° NW visible
20 May 5.8 22:05:50 17° SE 22:09:41 44° ENE 22:14:50 10° N visible
20 May 6.7 23:47:49 19° SW 23:50:30 28° W 23:55:08 10° NW visible
21 May 6.1 21:53:36 14° SE 21:57:44 35° ENE 22:02:39 10° N visible
21 May 6.3 23:35:35 22° SSW 23:38:23 35° W 23:43:20 10° NNW visible
22 May 6.3 21:41:22 11° ESE 21:45:49 29° ENE 21:50:26 10° N visible
22 May 6.0 23:23:21 24° SSW 23:26:16 44° W 23:31:29 10° NNW visible
23 May 6.6 21:29:42 10° ESE 21:33:54 24° ENE 21:38:09 10° N visible
23 May 5.6 23:11:06 25° S 23:14:12 56° W 23:19:34 10° NNW visible
24 May 6.9 21:18:18 10° ESE 21:22:02 19° ENE 21:25:47 10° NNE visible
24 May 5.3 22:58:53 25° S 23:02:08 71° WSW 23:07:36 10° NNW visible
25 May 5.2 22:46:38 24° SSE 22:50:05 88° WSW 22:55:35 10° NNW visible
26 May 7.5 00:29:21 10° WSW 00:31:31 12° W 00:33:43 10° WNW visible
26 May 5.2 22:34:24 21° SSE 22:38:04 75° ENE 22:43:32 10° N visible
